Location: Bakov nad Jizerou
(50.4784°N, 14.9394°E)
Time: 16:51:04
(UTC+00:00)

Cosmos 2123 Rocket - Visible Passes

Search period start: 21 October 2021 00:00
Search period end: 31 October 2021 00:00
Orbit: 962 x 991 km, 82.9° (Epoch: 21 October)

Date Brightness Start Highest point End Pass type
(mag) Time Alt. Az. Time Alt. Az. Time Alt. Az.
21 Oct 4.3 16:37:35 10° N 16:43:41 46° ENE 16:49:43 10° SE visible
21 Oct 5.5 18:23:16 10° NNW 18:28:59 36° W 18:34:39 10° SSW visible
22 Oct 7.0 04:31:32 10° ESE 04:34:28 14° ENE 04:37:24 10° NE visible
22 Oct 4.0 17:03:12 10° N 17:09:35 75° E 17:15:53 10° SSE visible
22 Oct 6.3 18:49:39 10° NNW 18:54:18 22° W 18:58:58 10° SW visible
23 Oct 6.7 04:54:53 10° SE 04:59:39 23° E 05:04:27 10° NNE visible
23 Oct 4.4 17:29:00 10° NNW 17:35:18 68° W 17:41:32 10° S visible
23 Oct 6.9 19:16:51 10° NW 19:19:29 13° WNW 19:22:06 10° W visible
24 Oct 5.3 17:55:00 10° NNW 18:00:50 41° W 18:06:39 10° SSW visible
25 Oct 7.1 04:04:14 10° E 04:06:25 12° ENE 04:08:36 10° NE visible
25 Oct 4.0 16:35:01 10° N 16:41:21 67° ENE 16:47:36 10° SSE visible
25 Oct 6.2 18:21:15 10° NNW 18:26:13 25° W 18:31:09 10° SW visible
26 Oct 6.8 04:27:05 10° SE 04:31:34 21° E 04:36:03 10° NE visible
26 Oct 4.2 17:00:47 10° NNW 17:07:07 76° W 17:13:23 10° S visible
26 Oct 6.9 18:48:10 10° NW 18:51:26 15° WNW 18:54:40 10° WSW visible
27 Oct 5.9 04:51:19 10° SSE 04:56:53 34° E 05:02:29 10° NNE visible
27 Oct 5.2 17:26:43 10° NNW 17:32:42 46° W 17:38:38 10° SSW visible
28 Oct 7.4 03:37:33 10° E 03:38:23 10° ENE 03:39:12 10° ENE visible
28 Oct 4.1 16:06:50 10° N 16:13:07 60° ENE 16:19:19 10° SSE visible
28 Oct 6.1 17:52:54 10° NNW 17:58:07 28° W 18:03:17 10° SW visible
29 Oct 6.8 03:59:22 10° ESE 04:03:29 18° ENE 04:07:37 10° NE visible
29 Oct 4.1 16:32:33 10° N 16:38:55 85° W 16:45:12 10° S visible
29 Oct 6.8 18:19:36 10° NW 18:23:21 17° WNW 18:27:06 10° WSW visible
30 Oct 6.1 04:23:23 10° SE 04:28:45 31° E 04:34:09 10° NNE visible
30 Oct 5.0 16:58:27 10° NNW 17:04:33 52° W 17:10:34 10° SSW visible
